Location: Caltech
(34.1382°N, 118.1253°W)
Time: 06:47:17
(UTC-07:00)

SO-67 - Visible Passes

Search period start: 01 September 2014 00:00
Search period end: 11 September 2014 00:00
Orbit: 462 x 466 km, 97.2° (Epoch: 01 September)

Date Brightness Start Highest point End Pass type
(mag) Time Alt. Az. Time Alt. Az. Time Alt. Az.
01 Sep ? 19:47:09 10° SSW 19:50:20 34° W 19:53:32 10° NNW visible
03 Sep ? 20:20:30 10° WSW 20:22:05 13° W 20:23:40 10° WNW visible
04 Sep ? 19:48:04 10° SSW 19:51:13 33° W 19:54:24 10° NNW visible
06 Sep ? 20:21:24 10° WSW 20:22:53 12° W 20:24:21 10° WNW visible
07 Sep ? 19:48:50 10° SSW 19:51:58 32° W 19:55:07 10° NNW visible
09 Sep ? 20:22:11 10° WSW 20:23:33 12° W 20:24:55 10° WNW visible
10 Sep ? 19:49:29 10° SSW 19:52:35 31° W 19:55:43 10° NNW visible
